Location: Kaikalui
(16.5250°N, 81.1500°E)
Time: 09:24:26
(UTC+00:00)

CSL-04 Debris - Pass Details

Date: 14 April 2026
Orbit: 820 x 838 km, 98.7° (Epoch: 12 May)

Event Time Altitude Azimuth Distance (km) Brightness Sun altitude
Exits shadow 14:36:15 58° 55° (NE) 946 4.2 -25.3°
Drops below altitude 10° 14:41:07 10° 357° (N) 2,413 6.8 -26.4°
Sets 14:43:29 0° 354° (N) 3,348 7.6 -26.9°
